Date,TemperatureHighF,TemperatureAvgF,TemperatureLowF,DewpointHighF,DewpointAvgF,DewpointLowF,HumidityHigh,HumidityAvg,HumidityLow,PressureMaxIn,PressureMinIn,WindSpeedMaxMPH,WindSpeedAvgMPH,GustSpeedMaxMPH,PrecipitationSumIn
2013-1-1,59.0,48.2,41.0,43.0,40.2,33.0,92,75,48,30.18,30.03,3,0,7,0.01
2013-1-2,64.0,54.4,42.0,43.0,30.8,21.0,84,44,22,30.08,29.97,6,1,14,0.00
2013-1-3,66.0,49.0,37.0,51.0,38.9,33.0,86,70,31,30.11,29.99,5,1,10,0.00
2013-1-4,66.0,49.5,36.0,41.0,32.1,23.0,84,56,20,30.22,30.11,4,0,9,0.00
2013-1-5,61.0,47.8,36.0,50.0,39.7,32.0,90,75,40,30.23,30.12,5,1,9,0.00
2013-1-6,57.0,50.2,44.0,50.0,45.9,41.0,96,86,66,30.15,29.96,7,1,16,0.07
2013-1-7,63.0,50.4,41.0,47.0,42.9,34.0,96,79,34,30.04,29.92,7,1,15,0.01
2013-1-8,63.0,50.8,40.0,53.0,45.7,38.0,94,83,65,30.05,29.95,4,1,12,0.01
2013-1-9,64.0,52.6,43.0,54.0,48.6,41.0,95,87,67,30.07,29.96,4,1,10,0.00
2013-1-10,57.0,53.0,47.0,50.0,41.2,27.0,92,66,42,30.04,29.86,11,4,27,0.02
2013-1-11,55.0,48.0,37.0,35.0,28.8,24.0,72,48,33,30.13,30.00,7,3,15,0.01
2013-1-12,54.0,44.3,34.0,37.0,31.5,24.0,80,62,41,30.11,30.01,5,1,12,0.00
2013-1-13,55.0,44.0,33.0,36.0,31.7,25.0,88,65,33,30.11,30.00,5,1,9,0.00
2013-1-14,57.0,47.9,39.0,31.0,13.3,4.0,72,26,14,30.27,30.07,11,3,28,0.00
2013-1-15,60.0,46.3,33.0,36.0,26.8,13.0,72,49,25,30.39,30.26,6,1,12,0.00
2013-1-16,63.0,49.1,36.0,47.0,38.3,33.0,88,69,38,30.29,30.05,4,1,10,0.00
2013-1-17,75.0,55.1,41.0,42.0,36.0,32.0,79,53,21,30.10,29.98,4,1,9,0.00
2013-1-18,78.0,56.6,40.0,39.0,35.1,31.0,77,49,18,30.07,29.98,4,0,9,0.00
2013-1-19,76.0,56.0,41.0,42.0,35.3,31.0,78,50,19,30.11,30.00,3,1,7,0.00
2013-1-20,75.0,54.7,40.0,45.0,36.6,29.0,76,54,19,30.07,29.93,4,1,9,0.00
2013-1-21,75.0,54.1,40.0,50.0,38.0,30.0,78,58,20,30.02,29.93,5,1,9,0.00
2013-1-22,78.0,56.4,40.0,39.0,33.6,27.0,72,46,16,30.03,29.94,3,0,7,0.00
2013-1-23,72.0,60.1,50.0,52.0,40.9,34.0,75,50,30,30.08,29.94,5,1,12,0.00
2013-1-24,68.0,59.8,54.0,57.0,54.5,51.0,94,83,64,30.13,30.03,6,1,11,0.59
2013-1-25,66.0,60.9,58.0,62.0,58.4,56.0,96,92,79,30.06,29.88,5,1,10,0.28
2013-1-26,65.0,59.3,55.0,62.0,57.5,54.0,98,94,84,29.95,29.83,5,1,13,0.20
2013-1-27,58.0,54.4,50.0,54.0,50.2,45.0,97,86,71,29.98,29.91,6,2,13,0.01
2013-1-28,60.0,50.0,40.0,46.0,39.3,31.0,94,69,34,30.12,29.95,8,2,16,0.00
2013-1-29,58.0,48.4,38.0,46.0,40.3,34.0,90,74,58,30.18,30.10,5,1,11,0.00
2013-1-30,67.0,53.5,41.0,48.0,42.4,39.0,92,69,41,30.28,30.15,4,1,8,0.00
2013-1-31,77.0,59.0,42.0,53.0,46.6,40.0,93,66,32,30.16,30.02,5,1,10,0.00
2013-2-1,71.0,56.8,45.0,55.0,47.7,43.0,92,74,38,30.11,30.03,5,1,11,0.00
2013-2-2,68.0,59.1,52.0,55.0,51.5,48.0,92,77,54,30.12,30.03,3,0,7,0.00
2013-2-3,69.0,60.0,52.0,55.0,52.2,49.0,91,77,51,30.08,29.94,5,1,12,0.00
2013-2-4,57.0,52.5,46.0,56.0,50.1,44.0,97,92,85,30.04,29.93,4,1,10,0.00
2013-2-5,56.0,53.7,51.0,52.0,49.8,48.0,94,87,81,30.05,29.93,3,0,9,0.00
2013-2-6,61.0,55.4,48.0,51.0,48.4,46.0,93,78,64,30.05,29.95,5,1,11,0.00
2013-2-7,59.0,51.8,43.0,52.0,47.4,42.0,96,85,73,30.08,29.95,4,1,11,0.00
2013-2-8,54.0,49.8,44.0,49.0,42.5,39.0,92,76,64,29.95,29.84,9,3,23,0.12
2013-2-9,56.0,46.9,37.0,44.0,40.1,35.0,95,79,57,30.04,29.87,6,1,12,0.01
2013-2-10,57.0,49.7,42.0,46.0,42.4,38.0,89,77,62,30.05,29.96,4,0,9,0.00
2013-2-11,60.0,49.4,39.0,47.0,41.7,35.0,94,77,41,30.18,29.99,7,1,14,0.00
2013-2-12,60.0,49.5,39.0,49.0,42.0,36.0,90,76,51,30.29,30.18,5,1,11,0.00
2013-2-13,62.0,50.5,39.0,51.0,44.9,37.0,95,82,57,30.21,30.08,4,1,10,0.00
2013-2-14,68.0,52.5,41.0,54.0,45.8,39.0,96,79,49,30.14,29.99,4,1,10,0.00
2013-2-15,82.0,60.9,43.0,49.0,38.8,28.0,91,53,14,30.11,30.03,10,2,21,0.00
2013-2-16,80.0,60.5,45.0,46.0,34.2,27.0,76,42,15,30.09,29.91,5,1,12,0.00
2013-2-17,62.0,53.5,44.0,52.0,47.1,39.0,95,79,67,29.97,29.87,5,2,14,0.00
2013-2-18,60.0,54.7,52.0,49.0,46.7,44.0,84,75,63,30.01,29.90,5,2,12,0.00
2013-2-19,56.0,52.0,46.0,48.0,43.6,40.0,90,74,64,29.93,29.66,9,3,18,0.09
2013-2-20,58.0,51.1,43.0,47.0,38.0,29.0,84,62,41,29.93,29.65,10,4,22,0.09
2013-2-21,60.0,51.8,45.0,47.0,43.0,40.0,85,73,52,30.03,29.91,4,1,12,0.00
2013-2-22,60.0,50.5,40.0,50.0,44.1,38.0,93,79,57,30.14,30.03,6,1,11,0.00
2013-2-23,60.0,51.0,41.0,50.0,44.7,38.0,92,80,55,30.11,29.87,6,1,16,0.00
2013-2-24,68.0,57.6,46.0,45.0,23.1,12.0,91,33,12,30.14,29.93,16,6,26,0.00
2013-2-25,64.0,52.1,39.0,48.0,38.4,30.0,87,62,32,30.15,30.02,5,1,12,0.00
2013-2-26,64.0,52.5,41.0,50.0,44.8,38.0,91,76,55,30.04,29.92,5,1,12,0.00
2013-2-27,73.0,56.1,41.0,45.0,36.8,27.0,85,55,18,30.20,30.05,6,1,12,0.00
2013-2-28,76.0,59.0,42.0,43.0,34.9,26.0,86,47,18,30.24,30.16,6,1,16,0.00
2013-3-1,82.0,63.8,46.0,42.0,36.2,29.0,67,40,15,30.23,30.07,6,1,13,0.00
2013-3-2,79.0,62.7,48.0,51.0,40.4,34.0,84,49,20,30.14,30.01,4,1,10,0.00
2013-3-3,67.0,57.7,51.0,54.0,51.3,46.0,92,80,54,30.05,29.93,6,1,11,0.00
2013-3-4,64.0,57.5,53.0,52.0,51.2,49.0,89,80,64,30.04,29.96,5,2,12,0.00
2013-3-5,59.0,55.3,52.0,52.0,50.6,48.0,92,84,76,30.07,29.98,5,1,11,0.00
2013-3-6,61.0,55.7,49.0,50.0,46.1,43.0,83,70,57,30.10,29.96,6,1,11,0.00
2013-3-7,60.0,55.5,52.0,52.0,49.8,45.0,93,81,65,29.96,29.80,5,1,14,0.01
2013-3-8,56.0,51.7,47.0,49.0,46.0,43.0,94,81,65,29.97,29.72,10,2,17,0.45
2013-3-9,61.0,54.4,48.0,48.0,45.9,43.0,88,74,55,30.16,29.97,5,2,13,0.02
2013-3-10,69.0,55.0,43.0,53.0,45.6,36.0,93,73,30,30.20,30.08,7,2,17,0.00
2013-3-11,67.0,55.5,43.0,54.0,47.7,40.0,95,77,46,30.12,29.98,5,1,12,0.00
2013-3-12,66.0,55.3,47.0,56.0,51.2,46.0,97,87,66,30.04,29.95,5,1,11,0.00
2013-3-13,67.0,55.8,50.0,57.0,52.6,49.0,97,90,70,30.06,29.96,5,1,11,0.00
2013-3-14,68.0,57.3,51.0,57.0,53.2,50.0,97,87,65,30.03,29.94,6,1,10,0.00
2013-3-15,59.0,54.8,52.0,55.0,52.5,50.0,96,92,83,29.99,29.88,7,2,14,0.00
2013-3-16,60.0,54.5,51.0,53.0,50.9,49.0,96,88,76,29.92,29.85,5,2,14,0.00
2013-3-17,64.0,57.3,54.0,54.0,51.8,50.0,91,82,70,29.95,29.88,5,2,12,0.00
2013-3-18,62.0,57.5,54.0,52.0,51.2,50.0,89,80,69,30.03,29.93,5,1,11,0.00
2013-3-19,63.0,55.8,49.0,54.0,51.3,47.0,95,85,71,30.06,29.98,5,1,12,0.00
2013-3-20,66.0,57.5,50.0,56.0,52.9,48.0,96,85,70,30.05,29.91,4,1,10,0.00
2013-3-21,66.0,58.5,53.0,56.0,53.1,50.0,93,83,67,29.91,29.75,6,2,11,0.00
2013-3-22,64.0,57.4,51.0,55.0,52.2,49.0,94,83,68,29.86,29.75,5,1,12,0.00
2013-3-23,64.0,58.1,52.0,54.0,52.4,50.0,93,82,68,29.96,29.85,7,1,12,0.00
2013-3-24,67.0,58.9,51.0,56.0,53.4,49.0,94,83,63,29.96,29.83,6,1,12,0.00
2013-3-25,67.0,57.9,51.0,58.0,54.1,49.0,97,88,70,29.92,29.83,5,1,10,0.00
2013-3-26,63.0,57.8,54.0,55.0,53.2,51.0,95,85,74,29.92,29.85,7,2,13,0.00
2013-3-27,63.0,58.6,55.0,54.0,52.7,51.0,89,81,69,29.99,29.87,6,2,14,0.00
2013-3-28,67.0,59.4,55.0,57.0,53.7,51.0,92,82,68,30.02,29.95,5,2,12,0.00
2013-3-29,63.0,57.8,55.0,56.0,54.4,53.0,94,89,78,30.05,29.98,5,1,12,0.00
2013-3-30,64.0,58.7,55.0,57.0,53.4,-99.9,94,86,77,30.07,30.00,5,2,13,0.00
2013-3-31,65.0,59.2,54.0,58.0,54.7,52.0,94,86,74,30.08,30.00,6,2,14,0.00
2013-4-1,64.0,58.7,55.0,55.0,52.7,50.0,91,81,65,30.11,30.02,9,2,17,0.00
2013-4-2,65.0,58.6,54.0,56.0,53.3,51.0,93,83,68,30.04,29.94,6,1,12,0.00
2013-4-3,68.0,59.6,55.0,58.0,54.8,52.0,94,85,69,30.04,29.93,7,2,14,0.00
2013-4-4,67.0,60.0,56.0,57.0,54.7,53.0,92,83,69,30.05,29.96,6,2,11,0.00
2013-4-5,65.0,59.5,56.0,57.0,55.4,53.0,95,87,73,30.04,29.95,5,2,13,0.00
2013-4-6,66.0,60.9,57.0,57.0,54.9,53.0,90,81,70,30.02,29.90,6,2,14,0.00
2013-4-7,66.0,59.5,53.0,57.0,54.2,51.0,93,83,69,29.91,29.75,6,1,13,0.00
2013-4-8,64.0,59.2,55.0,55.0,49.1,43.0,91,70,51,29.76,29.60,13,5,27,0.00
2013-4-9,67.0,57.8,47.0,52.0,46.1,37.0,89,67,33,29.94,29.75,10,2,21,0.00
2013-4-10,78.0,62.0,47.0,52.0,44.4,34.0,90,58,20,30.03,29.93,8,2,20,0.00
2013-4-11,67.0,58.5,50.0,55.0,50.8,45.0,88,76,52,29.95,29.73,6,2,16,0.00
2013-4-12,65.0,59.6,56.0,55.0,52.8,51.0,90,78,67,29.85,29.72,6,2,12,0.00
2013-4-13,60.0,57.3,55.0,56.0,53.5,50.0,94,87,79,29.86,29.79,6,2,12,0.00
2013-4-14,62.0,57.3,54.0,54.0,51.5,50.0,87,81,74,29.83,29.77,6,3,15,0.00
2013-4-15,63.0,58.3,54.0,54.0,51.8,48.0,86,79,70,29.86,29.78,8,2,14,0.00
2013-4-16,61.0,56.2,52.0,49.0,46.2,43.0,83,70,52,29.92,29.81,9,2,18,0.00
2013-4-17,69.0,59.7,48.0,46.0,36.0,27.0,81,44,21,30.06,29.92,11,3,23,0.00
2013-4-18,75.0,63.8,47.0,45.0,32.9,21.0,77,37,14,30.12,30.03,10,4,21,0.00
2013-4-19,81.0,64.4,47.0,53.0,39.1,28.0,84,46,15,30.09,29.91,8,2,17,0.00
2013-4-20,72.0,62.1,51.0,57.0,52.5,47.0,88,72,48,29.94,29.82,5,2,14,0.00
2013-4-21,67.0,59.8,53.0,58.0,55.0,51.0,94,85,71,29.96,29.88,7,2,14,0.00
2013-4-22,64.0,59.1,56.0,55.0,53.2,51.0,91,81,71,29.95,29.85,6,2,16,0.00
2013-4-23,66.0,60.2,57.0,55.0,52.8,51.0,86,77,65,29.92,29.80,6,2,12,0.00
2013-4-24,62.0,59.0,57.0,56.0,53.4,50.0,92,82,66,29.92,29.84,4,1,10,0.00
2013-4-25,69.0,62.6,59.0,55.0,53.0,50.0,84,72,54,30.05,29.90,6,2,14,0.00
2013-4-26,71.0,61.8,52.0,56.0,53.4,50.0,93,76,52,30.09,30.03,7,2,13,0.00
2013-4-27,68.0,60.3,53.0,59.0,55.7,51.0,95,85,71,30.10,29.93,5,2,14,0.00
2013-4-28,65.0,60.5,58.0,58.0,56.0,54.0,92,85,76,29.96,29.81,6,2,14,0.00
2013-4-29,64.0,59.6,57.0,57.0,55.5,54.0,94,86,76,29.85,29.72,6,2,14,0.00
2013-4-30,66.0,60.6,58.0,57.0,54.5,53.0,86,81,72,29.84,29.76,8,2,16,0.00
2013-5-1,69.0,62.8,59.0,58.0,56.1,54.0,90,79,65,30.03,29.84,6,2,13,0.00
2013-5-2,88.0,68.3,57.0,60.0,55.2,47.0,94,68,24,30.05,29.90,7,2,12,0.00
2013-5-3,83.0,68.0,53.0,58.0,51.5,41.0,91,61,23,29.94,29.71,6,2,14,0.00
2013-5-4,67.0,62.1,57.0,58.0,55.2,52.0,91,79,70,29.80,29.70,7,3,20,0.00
2013-5-5,65.0,60.9,59.0,55.0,53.6,52.0,84,77,66,29.89,29.77,7,2,19,0.00
2013-5-6,66.0,61.3,58.0,59.0,56.9,55.0,95,86,71,29.96,29.84,7,2,18,0.18
2013-5-7,68.0,61.9,56.0,57.0,54.3,51.0,92,77,54,30.01,29.92,6,2,14,0.06
2013-5-8,67.0,61.5,55.0,57.0,54.2,50.0,95,78,56,30.04,30.00,8,2,17,0.01
2013-5-9,68.0,61.7,55.0,57.0,55.5,53.0,93,81,67,30.04,29.97,6,2,12,0.00
2013-5-10,71.0,62.7,57.0,61.0,55.6,-99.9,92,82,68,30.03,29.95,5,2,12,0.00
2013-5-11,71.0,63.7,57.0,63.0,58.5,-99.9,95,86,73,30.02,29.92,7,2,12,0.00
2013-5-12,78.0,67.9,61.0,65.0,62.1,60.0,96,83,58,29.99,29.84,6,1,11,0.00
2013-5-13,87.0,72.1,61.0,66.0,60.7,56.0,94,70,38,29.90,29.80,6,2,14,0.00
2013-5-14,72.0,64.4,59.0,60.0,57.4,55.0,92,79,59,29.94,29.84,6,2,15,0.00
2013-5-15,67.0,62.2,59.0,58.0,55.7,54.0,89,79,70,29.98,29.89,7,3,13,0.00
2013-5-16,69.0,60.4,60.0,59.0,40.7,-99.9,83,76,66,29.92,29.84,6,2,13,0.00
2013-5-17,69.0,63.8,61.0,59.0,54.0,-99.9,88,78,68,29.94,29.85,8,2,16,0.00
2013-5-18,69.0,64.1,59.0,60.0,57.1,55.0,88,79,65,29.98,29.91,7,2,15,0.00
2013-5-19,69.0,63.7,59.0,59.0,57.4,55.0,89,80,70,29.93,29.82,6,2,14,0.00
2013-5-20,72.0,64.6,58.0,62.0,59.1,55.0,93,83,68,29.89,29.82,6,2,13,0.00
2013-5-21,70.0,64.6,62.0,62.0,59.7,58.0,90,84,74,29.88,29.78,7,2,17,0.00
2013-5-22,68.0,64.5,62.0,59.0,57.1,55.0,88,77,68,29.80,29.72,6,2,15,0.00
2013-5-23,68.0,62.8,57.0,57.0,54.9,53.0,87,76,63,29.88,29.76,6,2,15,0.00
2013-5-24,67.0,62.3,59.0,56.0,54.5,52.0,84,76,67,29.93,29.85,6,2,13,0.00
2013-5-25,69.0,61.7,55.0,58.0,54.1,51.0,86,77,64,29.97,29.91,6,2,13,0.00
2013-5-26,67.0,62.1,59.0,57.0,55.0,54.0,86,78,68,29.99,29.93,6,2,15,0.00
2013-5-27,69.0,63.6,58.0,60.0,56.6,54.0,87,79,68,29.95,29.79,6,2,13,0.00
2013-5-28,70.0,64.9,60.0,61.0,58.2,56.0,88,79,69,29.83,29.69,7,2,15,0.00
2013-5-29,72.0,65.7,59.0,62.0,59.6,56.0,92,81,67,29.75,29.67,6,2,14,0.00
2013-5-30,71.0,65.3,60.0,62.0,59.7,57.0,91,83,72,29.83,29.70,7,2,13,0.00
2013-5-31,73.0,65.8,62.0,62.0,59.5,57.0,89,81,67,29.85,29.76,8,2,14,0.00
2013-6-1,72.0,66.1,63.0,64.0,61.0,59.0,90,84,73,29.80,29.71,6,2,13,0.00
2013-6-2,68.0,64.3,62.0,61.0,59.5,57.0,90,85,75,29.78,29.71,6,2,15,0.00
2013-6-3,70.0,64.5,61.0,61.0,58.4,56.0,90,81,71,29.84,29.74,7,2,14,0.00
2013-6-4,70.0,64.6,61.0,60.0,57.6,56.0,87,78,67,29.91,29.83,6,2,13,0.00
2013-6-5,71.0,65.2,61.0,59.0,57.8,56.0,86,78,65,29.94,29.85,8,2,14,0.00
2013-6-6,68.0,62.8,59.0,60.0,57.8,55.0,89,84,75,29.90,29.82,6,2,13,0.00
2013-6-7,69.0,63.3,61.0,60.0,58.1,57.0,87,83,74,29.86,29.73,5,2,12,0.00
2013-6-8,66.0,62.3,60.0,60.0,58.0,56.0,90,86,78,29.85,29.73,5,2,13,0.00
2013-6-9,66.0,62.0,59.0,60.0,57.5,55.0,90,86,78,29.88,29.82,6,2,12,0.00
2013-6-10,72.0,65.1,59.0,60.0,57.4,56.0,89,77,64,29.89,29.83,6,2,14,0.00
2013-6-11,74.0,66.1,59.0,64.0,60.3,56.0,93,82,69,29.88,29.82,7,2,15,0.00
2013-6-12,69.0,64.3,62.0,61.0,59.6,58.0,90,85,75,29.97,29.86,5,2,11,0.00
2013-6-13,71.0,65.5,61.0,61.0,59.1,58.0,90,80,70,29.95,29.84,6,2,13,0.00
2013-6-14,69.0,63.6,60.0,60.0,57.9,55.0,91,82,70,29.86,29.79,6,2,16,0.00
2013-6-15,69.0,63.7,60.0,59.0,56.6,55.0,87,79,66,29.92,29.84,6,2,14,0.00
2013-6-16,70.0,65.2,61.0,60.0,57.7,55.0,89,77,67,29.97,29.89,6,2,13,0.00
2013-6-17,71.0,65.0,61.0,62.0,59.8,58.0,93,84,71,29.93,29.83,6,2,13,0.00
2013-6-18,70.0,64.1,59.0,63.0,59.6,57.0,94,86,75,29.86,29.78,6,2,15,0.00
2013-6-19,73.0,66.7,62.0,61.0,59.5,57.0,90,78,65,29.81,29.73,7,2,12,0.00
2013-6-20,71.0,64.0,58.0,62.0,58.9,56.0,93,84,70,29.80,29.73,6,2,15,0.00
2013-6-21,70.0,69.2,68.0,62.0,61.0,60.0,78,75,73,29.82,29.78,6,4,13,0.00
2013-6-22,69.0,67.3,63.0,61.0,59.8,58.0,88,77,72,29.85,29.76,7,3,15,0.00
2013-6-23,69.0,64.9,62.0,60.0,58.3,57.0,86,80,68,29.83,29.75,7,2,13,0.00
2013-6-24,72.0,65.2,62.0,61.0,59.1,56.0,92,81,65,29.89,29.77,5,1,11,0.00
2013-6-25,74.0,66.2,63.0,64.0,61.8,60.0,93,86,70,29.94,29.84,6,1,12,0.00
2013-6-26,75.0,67.7,62.0,65.0,62.8,60.0,94,85,68,29.92,29.84,6,2,13,0.00
2013-6-27,74.0,67.5,64.0,67.0,63.9,62.0,95,88,76,29.96,29.90,7,2,16,0.00
2013-6-28,78.0,68.6,63.0,68.0,64.3,62.0,96,87,68,29.94,29.80,5,2,11,0.00
2013-6-29,79.0,70.1,64.0,68.0,65.2,63.0,96,85,64,29.83,29.66,6,2,13,0.00
2013-6-30,79.0,70.5,66.0,70.0,66.0,64.0,95,86,71,29.75,29.64,6,2,18,0.00
2013-7-1,84.0,69.9,65.0,70.0,65.5,63.0,95,87,61,29.82,29.74,6,2,13,0.00
2013-7-2,72.0,67.9,65.0,66.0,64.4,63.0,96,89,80,29.94,29.81,7,2,15,0.00
2013-7-3,74.0,68.2,65.0,67.0,64.3,62.0,94,87,76,29.87,29.74,5,2,11,0.00
2013-7-4,73.0,66.8,63.0,65.0,62.5,60.0,93,86,75,29.78,29.70,7,2,12,0.00
2013-7-5,73.0,67.9,65.0,65.0,62.4,61.0,89,83,75,29.78,29.71,5,2,12,0.00
2013-7-6,73.0,67.8,66.0,65.0,62.7,61.0,88,84,76,29.77,29.70,6,1,13,0.00
2013-7-7,75.0,69.2,65.0,66.0,63.7,62.0,90,83,72,29.80,29.70,5,2,13,0.00
2013-7-8,79.0,67.0,61.0,66.0,61.1,-99.9,95,84,63,29.86,29.78,6,1,12,0.00
2013-7-9,75.0,68.3,63.0,67.0,63.5,60.0,94,85,74,29.94,29.83,9,2,17,0.00
2013-7-10,73.0,67.9,66.0,67.0,62.8,-99.9,92,87,80,29.91,29.83,6,1,11,0.00
2013-7-11,72.0,68.3,67.0,67.0,64.8,64.0,91,88,84,29.91,29.83,4,1,8,0.00
2013-7-12,77.0,69.5,64.0,67.0,64.8,61.0,93,85,70,29.87,29.79,5,1,13,0.00
2013-7-13,73.0,67.8,64.0,65.0,62.5,61.0,92,83,71,29.89,29.79,6,2,13,0.00
2013-7-14,76.0,69.0,64.0,67.0,63.9,61.0,92,84,71,29.87,29.77,5,2,13,0.00
2013-7-15,77.0,69.1,64.0,66.0,63.2,61.0,92,82,62,29.80,29.74,5,2,13,0.00
2013-7-16,75.0,66.9,60.0,64.0,60.9,58.0,94,82,65,29.92,29.79,6,1,12,0.00
2013-7-17,79.0,68.4,59.0,64.0,60.5,57.0,95,77,49,29.95,29.88,6,2,12,0.00
2013-7-18,74.0,66.3,60.0,64.0,61.1,58.0,95,84,70,29.93,29.79,6,2,12,0.00
2013-7-19,71.0,65.2,61.0,64.0,61.3,59.0,94,87,78,29.85,29.77,5,2,12,0.00
2013-7-20,69.0,65.0,64.0,63.0,60.1,-99.9,89,86,81,29.83,29.74,5,1,11,0.00
2013-7-21,68.0,65.8,64.0,64.0,61.9,61.0,92,88,83,29.86,29.72,4,1,10,0.00
2013-7-22,74.0,68.0,64.0,66.0,62.8,61.0,92,84,73,29.91,29.85,6,2,13,0.00
2013-7-23,73.0,67.8,64.0,65.0,62.5,60.0,92,84,73,29.96,29.86,6,2,13,0.00
2013-7-24,73.0,66.8,63.0,65.0,61.6,60.0,91,84,73,29.91,29.83,7,2,13,0.00
2013-7-25,72.0,66.0,62.0,63.0,61.0,59.0,92,84,73,29.95,29.86,5,2,13,0.00
2013-7-26,75.0,66.9,63.0,65.0,62.0,60.0,91,85,69,30.01,29.91,6,1,11,0.00
2013-7-27,70.0,65.2,62.0,64.0,61.3,59.0,93,87,79,29.96,29.82,6,2,13,0.00
2013-7-28,70.0,64.4,62.0,62.0,59.8,58.0,93,86,75,29.87,29.82,6,2,13,0.00
2013-7-29,71.0,65.1,62.0,61.0,58.5,56.0,88,80,69,29.97,29.85,7,2,14,0.00
2013-7-30,71.0,64.8,59.0,61.0,58.2,56.0,93,80,67,30.06,29.97,6,2,12,0.00
2013-7-31,70.0,64.0,59.0,60.0,58.2,56.0,92,82,69,30.04,29.93,6,2,12,0.00
2013-8-1,72.0,65.3,60.0,61.0,58.7,57.0,89,80,64,29.96,29.85,6,2,12,0.00
2013-8-2,72.0,65.7,62.0,61.0,59.5,58.0,89,81,69,29.91,29.85,6,2,12,0.00
2013-8-3,72.0,66.2,63.0,62.0,60.1,58.0,89,81,71,29.93,29.87,6,2,13,0.00
2013-8-4,72.0,65.7,61.0,62.0,59.7,58.0,90,81,71,29.95,29.86,6,2,12,0.00
2013-8-5,71.0,63.9,59.0,62.0,59.1,57.0,93,85,69,29.94,29.87,6,2,11,0.00
2013-8-6,71.0,65.2,61.0,62.0,59.3,57.0,90,81,71,29.98,29.90,6,2,14,0.00
2013-8-7,70.0,64.4,60.0,61.0,58.8,57.0,93,83,70,30.02,29.91,5,2,12,0.00
2013-8-8,71.0,63.7,58.0,62.0,59.2,56.0,95,86,70,29.94,29.85,5,1,13,0.00
2013-8-9,70.0,64.3,61.0,61.0,58.9,57.0,93,83,73,29.92,29.85,5,2,13,0.00
2013-8-10,70.0,64.3,61.0,60.0,58.6,57.0,92,82,70,29.97,29.90,6,2,13,0.00
2013-8-11,71.0,65.2,61.0,62.0,59.5,58.0,92,82,69,29.93,29.83,6,2,12,0.00
2013-10-18,76.0,62.6,51.0,58.0,54.2,48.0,92,76,47,29.94,29.85,4,1,10,0.00
2013-10-19,71.0,60.4,51.0,62.0,52.8,-99.9,93,80,68,29.95,29.89,5,1,11,0.00
2013-10-20,69.0,62.1,58.0,61.0,58.0,56.0,95,87,73,29.92,29.83,5,1,10,0.00
2013-10-21,69.0,61.1,56.0,58.0,56.3,54.0,93,85,67,29.92,29.84,5,1,9,0.00
2013-10-22,69.0,60.6,53.0,60.0,56.4,51.0,96,87,71,29.94,29.84,5,1,10,0.00
2013-10-23,66.0,61.6,60.0,57.0,55.6,55.0,88,81,68,29.91,29.84,4,1,9,0.00
2013-10-24,67.0,62.5,59.0,58.0,55.2,54.0,87,77,68,29.97,29.89,4,1,10,0.00
2013-10-25,70.0,62.4,58.0,59.0,56.5,55.0,92,81,68,30.06,29.94,5,1,8,0.00
2013-10-26,69.0,59.6,56.0,61.0,55.0,-99.9,95,88,75,30.02,29.90,4,1,9,0.00
2013-10-27,68.0,61.6,56.0,60.0,57.5,54.0,96,87,74,29.92,29.76,4,1,10,0.00
2013-10-28,65.0,59.2,56.0,56.0,49.7,-99.9,87,75,62,29.86,29.77,6,2,15,0.01
2013-10-29,65.0,57.3,52.0,54.0,51.0,49.0,95,81,58,29.95,29.86,5,1,13,0.01
2013-10-30,67.0,57.5,49.0,54.0,50.6,47.0,94,79,55,30.00,29.92,6,1,13,0.01